Newport, Oregon, United States (97365)
Lat: 44.64N, Lon: 124.05W
Wx Zone: ORZ002
Local Info
Past Weather Observations for Today

NOTE: This archive is for the closest National Weather Service station to Newport. Information may differ from the station used for current weather conditions.

Click here for Long-term Archive

Time Weather Temperature Dewpoint Humidity Pressure Winds Precip Visibility
12:55
Clear
61°F / 16°C 54°F / 12°C 77% 30.12 in
(1020 mb)
SSE 6.9 mph
(SSE 11 kph)
- 10SM
12:35
Clear
61°F / 16°C 55°F / 13°C 83% 30.12 in
(1020 mb)
S 4.6 mph
(S 7 kph)
- 10SM
12:15
Clear
61°F / 16°C 55°F / 13°C 83% 30.15 in
(1021 mb)
S 4.6 mph
(S 7 kph)
- 10SM
11:55
Clear
61°F / 16°C 55°F / 13°C 83% 30.15 in
(1021 mb)
S 5.8 mph
(S 9 kph)
- 10SM
11:35
Clear
61°F / 16°C 54°F / 12°C 77% 30.15 in
(1021 mb)
SSE 5.8 mph
(SSE 9 kph)
- 10SM
11:15
Clear
61°F / 16°C 54°F / 12°C 77% 30.15 in
(1021 mb)
SSE 4.6 mph
(SSE 7 kph)
- 10SM
10:55
Clear
59°F / 15°C 54°F / 12°C 82% 30.18 in
(1022 mb)
SSE 4.6 mph
(SSE 7 kph)
- 10SM
10:35
Clear
59°F / 15°C 54°F / 12°C 82% 30.18 in
(1022 mb)
SSE 3.5 mph
(SSE 6 kph)
- 10SM
10:15
Clear
55°F / 13°C 55°F / 13°C 100% 30.18 in
(1022 mb)
SE 3.5 mph
(SE 6 kph)
- 10SM
09:55
Clear
54°F / 12°C 54°F / 12°C 100% 30.18 in
(1022 mb)
SE 3.5 mph
(SE 6 kph)
- 10SM
09:35
Clear
54°F / 12°C 54°F / 12°C 100% 30.18 in
(1022 mb)
ESE 4.6 mph
(ESE 7 kph)
- 10SM
09:15
Clear
52°F / 11°C 52°F / 11°C 100% 30.15 in
(1021 mb)
ESE 6.9 mph
(ESE 11 kph)
- 10SM
08:55
Clear
52°F / 11°C 52°F / 11°C 100% 30.15 in
(1021 mb)
ESE 6.9 mph
(ESE 11 kph)
- 10SM
08:35
Clear
52°F / 11°C 52°F / 11°C 100% 30.15 in
(1021 mb)
ESE 5.8 mph
(ESE 9 kph)
- 10SM
08:15
Clear
50°F / 10°C 50°F / 10°C 100% 30.18 in
(1022 mb)
E 5.8 mph
(E 9 kph)
- 10SM
07:55
Clear
50°F / 10°C 50°F / 10°C 100% 30.18 in
(1022 mb)
E 6.9 mph
(E 11 kph)
- 10SM
07:35
Clear
50°F / 10°C 50°F / 10°C 100% 30.21 in
(1023 mb)
Calm - 10SM
07:15
Clear
50°F / 10°C 50°F / 10°C 100% 30.21 in
(1023 mb)
E 3.5 mph
(E 6 kph)
- 10SM
06:55
Partly Cloudy
50°F / 10°C 50°F / 10°C 100% 30.21 in
(1023 mb)
E 4.6 mph
(E 7 kph)
- 10SM
06:35
Overcast
Fog
50°F / 10°C 50°F / 10°C 100% 30.21 in
(1023 mb)
Calm - 1/2SM
06:15
Overcast
Fog
50°F / 10°C 50°F / 10°C 100% 30.21 in
(1023 mb)
Calm - 1/4SM
05:55
Overcast
Fog
52°F / 11°C 52°F / 11°C 100% 30.21 in
(1023 mb)
Calm - 1/2SM
05:35
Overcast
Fog
52°F / 11°C 52°F / 11°C 100% 30.24 in
(1024 mb)
Calm - 1/2SM
05:15
Overcast
Fog
52°F / 11°C 52°F / 11°C 100% 30.24 in
(1024 mb)
Calm - 1/2SM
04:55
Overcast
Fog And Mist
52°F / 11°C 52°F / 11°C 100% 30.24 in
(1024 mb)
Calm - 3/4SM
04:35
Overcast
Fog And Mist
52°F / 11°C 52°F / 11°C 100% 30.24 in
(1024 mb)
Calm - 1 1/4SM
04:15
Overcast
Fog And Mist
52°F / 11°C 52°F / 11°C 100% 30.27 in
(1025 mb)
Calm - 1 1/4SM
03:55
Overcast
Fog
52°F / 11°C 52°F / 11°C 100% 30.27 in
(1025 mb)
Calm - 1/2SM
03:35
Overcast
Fog
52°F / 11°C 52°F / 11°C 100% 30.27 in
(1025 mb)
Calm - 1/2SM
03:15
Overcast
Fog
52°F / 11°C 52°F / 11°C 100% 30.3 in
(1026 mb)
Calm - 1/2SM
02:55
Overcast
Fog And Mist
52°F / 11°C 52°F / 11°C 100% 30.3 in
(1026 mb)
Calm - 4SM
02:35
Overcast
Fog And Mist
52°F / 11°C 52°F / 11°C 100% 30.3 in
(1026 mb)
S 4.6 mph
(S 7 kph)
- 5SM
02:15
Overcast
Fog And Mist
54°F / 12°C 54°F / 12°C 100% 30.3 in
(1026 mb)
S 3.5 mph
(S 6 kph)
- 1 3/4SM
01:55
Overcast
Fog And Mist
54°F / 12°C 54°F / 12°C 100% 30.3 in
(1026 mb)
S 5.8 mph
(S 9 kph)
- 3/4SM
01:35
Overcast
Fog And Mist
54°F / 12°C 54°F / 12°C 100% 30.3 in
(1026 mb)
S 6.9 mph
(S 11 kph)
- 3/4SM
01:15
Overcast
Fog
54°F / 12°C 54°F / 12°C 100% 30.33 in
(1027 mb)
SSE 5.8 mph
(SSE 9 kph)
- 1/2SM
00:55
Overcast
Fog
54°F / 12°C 54°F / 12°C 100% 30.33 in
(1027 mb)
SSE 6.9 mph
(SSE 11 kph)
- 1/2SM
00:35
Overcast
Fog And Mist
54°F / 12°C 54°F / 12°C 100% 30.33 in
(1027 mb)
SSE 9.2 mph
(SSE 15 kph)
- 3/4SM
00:15
Overcast
Fog And Mist
54°F / 12°C 54°F / 12°C 100% 30.33 in
(1027 mb)
SW 6.9 mph
(SW 11 kph)
- 2 1/2SM
Time Weather Temperature Dewpoint Humidity Pressure Winds Precip Visibility


Weather for websites

WeatherForYou.com, LLC is not responsible for any damages or problems caused by this service. Current weather conditions are obtained from the closest station including government and personal stations which may have varying degrees of accuracy. Weather forecasts are derived from the NOAA NDFD. Like all things, this site belongs to Jesus Christ... He just trusts me to maintain it. If you have any questions or comments email webmaster@weatherforyou.com

Copyright © 2014, WeatherForYou.com LLC. All rights reserved.